Weather History for Orr, MN

Change the Weather History Date:

Monday, November 25, 2013

  Actual Average Record
Temperature  
Mean Temperature 26 °F -  
Max Temperature 35 °F 28 °F 44 °F (1997)
Min Temperature 17 °F 14 °F -13 °F (1996)
Degree Days  
Heating Degree Days 39    
Moisture  
Dew Point 20 °F    
Average Humidity 71    
Maximum Humidity 80    
Minimum Humidity 56    
Precipitation  
Precipitation 0.00 in - - ()
Sea Level Pressure  
Sea Level Pressure 29.76 in    
Wind  
Wind Speed 12 mph (WNW)    
Max Wind Speed 23 mph    
Max Gust Speed 32 mph    
Visibility 10 miles    
Events Snow    
Averages and records for this station are not official NWS values.
T = Trace of Precipitation, MM = Missing Value Source: NWS Daily Summary

Daily Weather History Graph

Daily Weather History Graph

Search for Another Location

Airport:

Trip Planner

Search our weather history database for the weather conditions in past years. The results will help you decide how hot, cold, wet, or windy it might be!

Date:

Astronomy

Nov. 25, 2013 Rise Set
Actual Time 7:32 AM CST 4:23 PM CST
Civil Twilight 6:57 AM CST 4:58 PM CST
Nautical Twilight 6:19 AM CST 5:37 PM CST
Astronomical Twilight 5:42 AM CST 6:14 PM CST
Moon No Moon Rise 12:32 PM CST
Length of Visible Light 10h 01m
Length of Day
8h 51m
Waning Gibbous, 51% of the Moon is Illuminated
Nov 25
Waning Gibbous
Nov 25
Last Quarter
Dec 2
New
Dec 9
First Quarter
Dec 17
Full

Hourly Weather History & Observations

Time (CST) Temp. Windchill Dew Point Humidity Pressure Visibility Wind Dir Wind Speed Gust Speed Precip Events Conditions
12:13 AM 35.6 °F 28.0 °F 21.2 °F 56% 29.59 in 10.0 mi SW 10.4 mph 16.1 mph N/A   Overcast
12:33 AM 33.8 °F 27.0 °F 21.2 °F 60% 29.60 in 10.0 mi WSW 8.1 mph - N/A   Mostly Cloudy
12:53 AM 35.6 °F 27.5 °F 21.2 °F 56% 29.60 in 10.0 mi West 11.5 mph 18.4 mph N/A   Overcast
1:13 AM 35.6 °F 26.6 °F 24.8 °F 65% 29.60 in 10.0 mi WSW 13.8 mph 20.7 mph N/A   Overcast
1:33 AM 33.8 °F 24.8 °F 24.8 °F 70% 29.61 in 10.0 mi West 12.7 mph 23.0 mph N/A   Overcast
1:53 AM 33.8 °F 25.8 °F 24.8 °F 70% 29.61 in 10.0 mi West 10.4 mph 20.7 mph N/A   Overcast
2:13 AM 33.8 °F 25.8 °F 24.8 °F 70% 29.61 in 10.0 mi West 10.4 mph 21.9 mph N/A   Overcast
2:33 AM 33.8 °F 25.3 °F 24.8 °F 70% 29.62 in 10.0 mi West 11.5 mph 19.6 mph N/A   Overcast
2:53 AM 33.8 °F 26.4 °F 24.8 °F 70% 29.61 in 10.0 mi WSW 9.2 mph 20.7 mph N/A   Overcast
3:13 AM 33.8 °F 25.8 °F 24.8 °F 70% 29.62 in 10.0 mi West 10.4 mph 16.1 mph N/A   Overcast
3:33 AM 32.0 °F 24.8 °F 24.8 °F 75% 29.62 in 10.0 mi West 8.1 mph 18.4 mph N/A   Overcast
3:53 AM 32.0 °F 23.0 °F 24.8 °F 75% 29.63 in 10.0 mi West 11.5 mph 20.7 mph N/A   Overcast
4:13 AM 32.0 °F 22.5 °F 26.6 °F 80% 29.63 in 10.0 mi West 12.7 mph 18.4 mph N/A   Overcast
4:33 AM 32.0 °F 22.5 °F 26.6 °F 80% 29.64 in 10.0 mi West 12.7 mph 23.0 mph N/A   Overcast
4:53 AM 32.0 °F 22.1 °F 26.6 °F 80% 29.64 in 10.0 mi West 13.8 mph 21.9 mph N/A   Overcast
5:13 AM 32.0 °F 22.5 °F 26.6 °F 80% 29.65 in 10.0 mi West 12.7 mph 19.6 mph N/A   Overcast
5:33 AM 32.0 °F 23.6 °F 26.6 °F 80% 29.65 in 10.0 mi West 10.4 mph 17.3 mph N/A   Overcast
5:53 AM 32.0 °F 25.6 °F 24.8 °F 75% 29.66 in 10.0 mi West 6.9 mph 17.3 mph N/A   Overcast
6:13 AM 32.0 °F 25.6 °F 24.8 °F 75% 29.66 in 10.0 mi West 6.9 mph 16.1 mph N/A   Overcast
6:33 AM 32.0 °F 24.8 °F 24.8 °F 75% 29.67 in 10.0 mi West 8.1 mph - N/A   Overcast
6:53 AM 32.0 °F 23.6 °F 24.8 °F 75% 29.67 in 10.0 mi West 10.4 mph 16.1 mph N/A   Overcast
7:13 AM 32.0 °F 24.2 °F 24.8 °F 75% 29.68 in 10.0 mi West 9.2 mph - N/A   Overcast
7:33 AM 32.0 °F 23.0 °F 24.8 °F 75% 29.68 in 10.0 mi West 11.5 mph 17.3 mph N/A   Overcast
7:53 AM 32.0 °F 24.2 °F 24.8 °F 75% 29.69 in 10.0 mi West 9.2 mph 16.1 mph N/A   Overcast
8:13 AM 32.0 °F 23.0 °F 24.8 °F 75% 29.70 in 10.0 mi West 11.5 mph 16.1 mph N/A   Overcast
8:33 AM 32.0 °F 23.0 °F 23.0 °F 69% 29.70 in 10.0 mi West 11.5 mph 17.3 mph N/A   Overcast
8:53 AM 32.0 °F 23.0 °F 23.0 °F 69% 29.71 in 10.0 mi West 11.5 mph 16.1 mph N/A   Overcast
9:13 AM 32.0 °F 22.1 °F 23.0 °F 69% 29.72 in 10.0 mi WNW 13.8 mph 20.7 mph N/A   Overcast
9:33 AM 32.0 °F 22.5 °F 24.8 °F 75% 29.72 in 10.0 mi WNW 12.7 mph 21.9 mph N/A   Overcast
9:53 AM 32.0 °F 22.1 °F 24.8 °F 75% 29.73 in 10.0 mi WNW 13.8 mph 20.7 mph N/A   Overcast
10:13 AM 32.0 °F 21.6 °F 24.8 °F 75% 29.74 in 10.0 mi WNW 15.0 mph 20.7 mph N/A   Overcast
10:33 AM 32.0 °F 22.5 °F 24.8 °F 75% 29.74 in 10.0 mi WNW 12.7 mph 18.4 mph N/A Snow Light Snow
10:53 AM 32.0 °F 24.2 °F 24.8 °F 75% 29.75 in 10.0 mi WNW 9.2 mph 18.4 mph N/A Snow Light Snow
11:13 AM 33.8 °F 25.3 °F 24.8 °F 70% 29.75 in 10.0 mi WNW 11.5 mph 16.1 mph N/A Snow Light Snow
11:33 AM 33.8 °F 25.8 °F 24.8 °F 70% 29.75 in 10.0 mi WNW 10.4 mph - N/A   Overcast
11:53 AM 33.8 °F 24.8 °F 24.8 °F 70% 29.76 in 10.0 mi WNW 12.7 mph 19.6 mph N/A Snow Light Snow
12:13 PM 33.8 °F 27.0 °F 24.8 °F 70% 29.76 in 10.0 mi WNW 8.1 mph - N/A Snow Light Snow
12:33 PM 32.0 °F 24.8 °F 24.8 °F 75% 29.76 in 7.0 mi West 8.1 mph 17.3 mph N/A Snow Light Snow
12:54 PM 32.0 °F 24.8 °F 26.6 °F 80% 29.77 in 4.0 mi West 8.1 mph 16.1 mph N/A Snow Light Snow
1:14 PM 32.0 °F 23.6 °F 26.6 °F 80% 29.76 in 10.0 mi West 10.4 mph 17.3 mph N/A Snow Light Snow
1:33 PM 32.0 °F 22.5 °F 24.8 °F 75% 29.76 in 10.0 mi West 12.7 mph 18.4 mph N/A   Overcast
1:53 PM 32.0 °F 22.1 °F 26.6 °F 80% 29.76 in 5.0 mi WNW 13.8 mph - N/A Snow Light Snow
2:13 PM 32.0 °F 24.2 °F 26.6 °F 80% 29.77 in 10.0 mi West 9.2 mph - N/A Snow Light Snow
2:33 PM 32.0 °F 22.5 °F 24.8 °F 75% 29.77 in 10.0 mi WNW 12.7 mph 20.7 mph N/A   Overcast
2:53 PM 30.2 °F 20.2 °F 24.8 °F 80% 29.78 in 10.0 mi WNW 12.7 mph - N/A   Overcast
3:13 PM 30.2 °F 19.8 °F 23.0 °F 75% 29.79 in 10.0 mi WNW 13.8 mph 21.9 mph N/A   Overcast
3:34 PM 30.2 °F 19.8 °F 23.0 °F 75% 29.80 in 10.0 mi NW 13.8 mph 20.7 mph N/A   Overcast
3:53 PM 28.4 °F 15.8 °F 21.2 °F 74% 29.81 in 10.0 mi WNW 18.4 mph 25.3 mph N/A   Overcast
4:13 PM 26.6 °F 12.0 °F 17.6 °F 69% 29.83 in 10.0 mi WNW 23.0 mph 28.8 mph N/A   Overcast
4:33 PM 26.6 °F 13.8 °F 15.8 °F 64% 29.83 in 10.0 mi WNW 17.3 mph 28.8 mph N/A   Overcast
4:53 PM 26.6 °F 13.4 °F 15.8 °F 64% 29.85 in 10.0 mi WNW 18.4 mph 25.3 mph N/A   Overcast
5:13 PM 24.8 °F 11.1 °F 15.8 °F 69% 29.86 in 10.0 mi WNW 18.4 mph 26.5 mph N/A   Overcast
5:33 PM 24.8 °F 11.9 °F 14.0 °F 64% 29.87 in 10.0 mi WNW 16.1 mph 26.5 mph N/A   Overcast
5:53 PM 24.8 °F 11.1 °F 14.0 °F 64% 29.87 in 10.0 mi NW 18.4 mph 26.5 mph N/A   Overcast
6:13 PM 23.0 °F 8.0 °F 12.2 °F 63% 29.88 in 10.0 mi WNW 20.7 mph 29.9 mph N/A   Overcast
6:33 PM 23.0 °F 10.1 °F 12.2 °F 63% 29.89 in 10.0 mi NW 15.0 mph 32.2 mph N/A   Overcast
6:53 PM 21.2 °F 6.8 °F 12.2 °F 68% 29.89 in 10.0 mi WNW 17.3 mph 23.0 mph N/A   Overcast
7:13 PM 21.2 °F 7.3 °F 14.0 °F 74% 29.89 in 10.0 mi WNW 16.1 mph 26.5 mph N/A Snow Light Snow
7:33 PM 21.2 °F 7.3 °F 14.0 °F 74% 29.90 in 4.0 mi NW 16.1 mph 24.2 mph N/A Snow Light Snow
7:53 PM 21.2 °F 8.9 °F 12.2 °F 68% 29.90 in 7.0 mi NW 12.7 mph 20.7 mph N/A Snow Light Snow
8:13 PM 21.2 °F 8.3 °F 10.4 °F 63% 29.90 in 10.0 mi NW 13.8 mph 21.9 mph N/A   Overcast
8:33 PM 19.4 °F 4.1 °F 10.4 °F 68% 29.90 in 7.0 mi NW 18.4 mph 25.3 mph N/A Snow Light Snow
8:53 PM 19.4 °F 5.0 °F 10.4 °F 68% 29.91 in 10.0 mi WNW 16.1 mph 21.9 mph N/A   Overcast
9:13 PM 19.4 °F 6.6 °F 6.8 °F 58% 29.91 in 10.0 mi NW 12.7 mph 23.0 mph N/A   Overcast
9:33 PM 19.4 °F 4.5 °F 8.6 °F 63% 29.91 in 10.0 mi WNW 17.3 mph 27.6 mph N/A   Overcast
9:53 PM 17.6 °F 5.0 °F 8.6 °F 68% 29.91 in 10.0 mi WNW 11.5 mph 17.3 mph N/A   Overcast
10:13 PM 17.6 °F 7.3 °F 8.6 °F 68% 29.91 in 10.0 mi WNW 8.1 mph 19.6 mph N/A   Overcast
10:33 PM 17.6 °F 5.0 °F 10.4 °F 73% 29.91 in 10.0 mi WNW 11.5 mph 18.4 mph N/A   Overcast
10:54 PM 17.6 °F 5.7 °F 8.6 °F 68% 29.91 in 10.0 mi West 10.4 mph 17.3 mph N/A   Overcast
11:13 PM 17.6 °F 5.7 °F 8.6 °F 68% 29.90 in 10.0 mi West 10.4 mph - N/A   Mostly Cloudy
11:33 PM 17.6 °F 5.0 °F 8.6 °F 68% 29.90 in 10.0 mi West 11.5 mph 16.1 mph N/A   Mostly Cloudy
11:53 PM 17.6 °F 4.3 °F 8.6 °F 68% 29.90 in 10.0 mi West 12.7 mph 18.4 mph N/A   Mostly Cloudy